◎2006 GY2の軌道と予報位置です    [From JSGA Web News No. 70]



JSGA Web News No. 70                                               2006 May 18



アポロ型特異小惑星 2006 GY2の接近



    −−−−−−−−−−−−−−−−−−−−−−−−−−−−−−−−−−−

    お詫び:美星のコンピュータのシステム障害のため,発行・発送が遅くなった

    −−−−−−−−−−−−−−−−−−−−−−−−−−−−−−−−−−−



  2006年4月9日にLINEARサーベイで19等級で発見されたこの小惑星は,発見1ヶ月後

の5月中旬頃に地球に 0.02 AUまで接近し,その頃,約14等級まで明るくなることが,

予報された.小惑星は,各地で追跡観測され,5月12日には14等級で観測されている.

美星スペースガードセンターの浅見敦夫氏も,自身の秦野のステーションで28-cm反射

を使用して,5月5日に次のように観測した.



     K06G02Y  C2006 05 05.65093 15 51 01.00 +52 00 23.9          16.2 R      355

     K06G02Y  C2006 05 05.65291 15 51 00.37 +52 00 27.7                      355

     K06G02Y  C2006 05 05.65608 15 50 59.43 +52 00 33.1                      355

     K06G02Y  C2006 05 05.65784 15 50 59.01 +52 00 36.1                      355

     K06G02Y  C2006 05 05.65949 15 50 58.45 +52 00 38.8                      355





 次の軌道は,その発見から5月12日までに行なわれた 252個の観測から決定されたも

の.小惑星は,2006年5月16.3日UTに地球に0.017 AUまで接近した.なお,この小惑星

の直径は,622-mと推定される.最近発見される地球接近小惑星としてはかなり大きい.

               。

       Mo= 320.8162                Epoch = 2006 Mar.  6.0 TT

       ω = 216.6843                   e =   0.494063          H = 18.7

       Ω =  54.4031    (2000.0)       a =   1.853759 AU       G =  0.15

       i =  30.5857                   n゚=   0.3905027

       q =   0.937885 AU              P =   2.52 年





 次の位置予報は,地心からのもの(0時TT).小惑星は,しばらくの間,観測できる

だろう.



2006/        α  (2000) δ      △      r     日々運動   Elong.  Phase   V  

  0h TT     h  m       。  ,        AU      AU    ,  PA 。     。      。      等

May   1   16 03.94  +50 16.0    0.169   1.082  26.5/315   111.7   59.9   17.2

      2   16 01.99  +50 34.8    0.158   1.076  29.9/313   111.5   60.6   17.0

      3   15 59.68  +50 55.2    0.147   1.070  34.3/311   111.3   61.4   16.9

      4   15 56.91  +51 17.5    0.137   1.065  39.8/309   111.0   62.1   16.7

      5   15 53.58  +51 42.2    0.126   1.059  47.0/307   110.6   63.0   16.6

      6   15 49.49  +52 10.2    0.115   1.054  56.5/305   110.3   63.9   16.4

      7   15 44.41  +52 42.2    0.104   1.049  69.3/303   109.8   64.9   16.2

      8   15 37.94  +53 19.6    0.093   1.043  87.3/301   109.2   66.0   16.0

      9   15 29.47  +54 03.8    0.082   1.038 113.5/299   108.5   67.2   15.7

     10   15 17.95  +54 57.1    0.071   1.033 153.7/296   107.5   68.7   15.4

     11   15 01.53  +56 01.5    0.060   1.028 219.2/293   106.2   70.6   15.1

     12   14 36.57  +57 17.5    0.050   1.023 334.9/288   104.3   73.0   14.8

     13   13 55.59  +58 34.1    0.039   1.019 560.2/279   101.3   76.5   14.4

     14   12 43.59  +58 44.8    0.030   1.014 032.8/263    96.1   82.2   14.0

     15   10 46.58  +53 01.1    0.022   1.010 849.4/239    86.5   92.3   13.7

     16   08 42.16  +31 48.4    0.017   1.005 097.8/217    70.2  108.9   14.0

     17   07 20.68  +02 34.2    0.019   1.001 312.2/211    57.7  121.3   15.1

     18   06 34.44  -16 04.7    0.027   0.997 697.5/213    56.0  122.7   15.9

     19   06 06.76  -25 44.8    0.036   0.993 400.5/215    57.4  120.9   16.4

     20   05 48.79  -31 07.8    0.046   0.989 253.2/218    58.9  118.8   16.7

     21   05 36.31  -34 26.3    0.056   0.985 172.5/220    60.1  117.1   17.1

     22   05 27.18  -36 38.0    0.067   0.981 124.3/221    61.0  115.6   17.3

     23   05 20.22  -38 10.6    0.078   0.978  93.4/223    61.7  114.2   17.5

     24   05 14.73  -39 18.5    0.089   0.975  72.5/225    62.3  113.0   17.7

     25   05 10.30  -40 09.8    0.100   0.971  57.6/226    62.8  111.9   17.9

     26   05 06.64  -40 49.6    0.111   0.968  46.8/228    63.2  110.9   18.1

     27   05 03.56  -41 20.8    0.122   0.965  38.6/230    63.6  109.9   18.2

     28   05 00.94  -41 45.7    0.133   0.962  32.2/232    63.9  109.0   18.3

     29   04 58.67  -42 05.7    0.144   0.960  27.2/234    64.2  108.1   18.5

     30   04 56.69  -42 21.6    0.155   0.957  23.2/236    64.4  107.2   18.6

     31   04 54.94  -42 34.5    0.166   0.955  19.9/239    64.7  106.3   18.6

June  1   04 53.39  -42 44.6    0.176   0.953  17.2/242    64.9  105.5   18.7

 

 

軌道と残差:

 

2006 GY2

Epoch 2006 Mar. 6.0 TT = JDT 2453800.5                  Nakano

M 320.81623              (2000.0)            P               Q

n   0.39050271     Peri.  216.68429     -0.04860884     +0.90909498

a   1.8537593      Node    54.40306     -0.75201343     +0.23930932

e   0.4940633      Incl.   30.58571     -0.65735301     -0.34099468

P   2.52           H   18.7           G   0.15           U   6

Residuals in seconds of arc 

060409 704  0.4-  0.7+    060423 H45  0.0   0.6+    060504 379  0.1+  0.1+  

060409 704  0.4-  0.7+    060423 H45  0.1+  0.3+    060504 379  0.1+  0.1+  

060409 704  0.0   0.3+    060423 H45  0.0   0.6+    060504 379  0.1+  0.3+  

060409 704  0.0   0.3+    060423 H45  0.2-  0.5+    060504 379  0.1-  0.2-  

060409 704  0.0   0.6+    060423 918  0.0   0.2+    060504 379  0.2-  0.0   

060409 704  0.0   0.6+    060423 918  0.3+  0.1-    060504 379  0.1-  0.3+  

060409 704  0.2-  0.3+    060423 918  0.3+  0.2+    060504 379  0.1+  0.3-  

060409 704  0.2-  0.3+    060423 918  0.3+  0.3+    060504 379  0.1-  0.1+  

060410 H36  0.3-  0.2+    060423 918  0.2-  0.3+    060504 379  0.1-  0.1+  

060410 H36  0.3-  0.2+    060423 918  0.4+  0.2+    060504 379  0.4+  0.3+  

060410 H36  0.6+  0.6-    060423 918  0.1+  0.2+    060504 379  0.2+  0.1+  

060410 H36  0.6+  0.6-    060424 198  0.1-  0.1+    060504 379  0.4+  0.0   

060410 H36  0.0   0.2+    060424 198  0.1-  0.1+    060505 704  0.6-  0.4-  

060410 H36  0.0   0.2+    060424 198  0.3-  0.2-    060505 704  0.6-  0.6-  

060410 850  0.0   0.6-    060424 H45  0.6-  1.3+    060505 704 (0.7+  6.7-) 

060410 850  0.0   0.6-    060424 H45  0.5-  1.0+    060505 704  0.8-  0.6-  

060410 850  0.3+  0.8-    060424 H45  0.2+  0.1+    060505 704  0.6-  0.4-  

060410 850  0.3+  0.8-    060424 H45  0.2+  0.4-    060505 355  0.7+  0.1-  

060410 850  0.2+  0.2-    060424 H45  0.2-  0.2+    060505 355  0.2+  0.3+  

060410 850  0.2+  0.2-    060424 H45  0.2-  0.5+    060505 355  0.1+  0.3+  

060410 J95  0.1+  0.6+    060425 113  0.3+  0.1-    060505 355  1.0+  0.3+  

060410 J95  0.1+  0.6+    060425 113  0.4+  0.2-    060505 355  0.3+  0.2+  

060410 J95  0.2+  0.2-    060425 113  0.2+  0.0     060505 940 (0.2+  2.2+) 

060410 J95  0.2+  0.2-    060425 H85  0.1-  0.0     060505 940 (0.4-  2.2+) 

060410 J95  0.1+  0.2-    060425 H85  0.2-  0.0     060505 940 (0.6+  2.0+) 

060410 J95  0.1+  0.2-    060425 H85  0.2+  0.4-    060505 940 (1.8+  2.8+) 

060411 F65  0.1+  0.5+    060425 379  0.3-  0.9+    060506 H45  0.0   0.2-  

060411 F65  0.1+  0.5+    060425 379  0.4-  0.2+    060506 H45  0.1+  0.2-  

060411 F65  0.0   0.2+    060426 A53  0.2+  0.2+    060506 H45  0.0   0.2-  

060411 F65  0.0   0.2+    060426 A53  0.2+  0.2+    060506 H45  0.2+  0.3-  

060411 F65  0.1+  0.3+    060427 A53  0.4+  0.1-    060506 H45  0.1+  0.2-  

060411 F65  0.1+  0.3+    060427 H45 (7.0+  0.7+)   060506 H45  0.2+  0.3-  

060411 F65  0.0   0.2+    060427 H45  0.1+  0.1-    060506 H45  0.0   0.3+  

060411 F65  0.0   0.2+    060427 H45  0.1+  0.2-    060506 704  0.2-  0.2-  

060414 941  0.1+  0.1-    060427 H45  0.0   0.1-    060506 704  0.8-  0.9-  

060414 941  0.1+  0.1-    060427 H45  0.0   0.1-    060506 704  0.9-  0.9-  

060414 941  0.1+  0.2-    060427 H45  0.0   0.1-    060506 704  0.7-  1.2-  

060414 941  0.1+  0.2-    060427 H45  0.1+  0.4+    060506 473  0.3-  0.1-  

060414 941  0.2+  0.4-    060427 H45  0.2+  0.2+    060506 473  0.3-  0.1+  

060414 941  0.2+  0.4-    060427 379  0.4+  0.7+    060507 704  0.6-  0.0   

060414 941  0.4+  0.6-    060427 379  0.4+  1.3+    060507 704  0.7-  0.1-  

060414 941  0.4+  0.6-    060428 H45  0.1-  0.2+    060507 704  0.7-  0.0   

060414 J95  0.1-  0.4-    060428 H45  0.1-  0.0     060507 704  0.8-  0.2-  

060414 J95  0.1-  0.4-    060428 H45  0.0   0.1-    060507 704  1.0-  0.1-  

060414 J95  0.0   0.1-    060428 H45  0.2-  0.2-    060508 704  0.1+  0.1-  

060414 J95  0.0   0.1-    060428 H45  0.3-  0.2-    060508 704  0.0   0.3-  

060414 J95  0.3-  0.2-    060428 H45  0.1+  0.1-    060508 704  0.0   0.1-  

060414 J95  0.3-  0.2-    060428 H45  0.1+  0.2-    060508 704  0.1-  0.0   

060416 G88  0.1-  0.2-    060428 H45  0.2+  0.2-    060508 704  0.0   0.1-  

060416 G88  0.0   0.1-    060430 198  0.2-  0.4+    060509 461  0.3-  0.2+  

060416 G88  0.5+  0.3+    060430 198  0.1-  0.2+    060509 461  0.2-  0.1+  

060417 704  0.2-  0.6-    060430 198  0.1-  0.2+    060509 461  0.2-  0.0   

060417 704  0.1-  0.7-    060430 198  0.1-  0.2+    060509 461  0.3-  0.1+  

060417 734  0.2-  0.1-    060430 198  0.1-  0.2+    060509 461  0.3-  0.2+  

060417 704  1.6+  0.7-    060430 H45  0.2-  0.2-    060509 461  0.2-  0.1+  

060417 734  0.1-  0.2-    060430 H45  0.2-  0.1-    060509 461  0.3-  0.1+  

060417 734  0.2-  0.2-    060430 H45  0.1-  0.2-    060509 461  0.3-  0.1+  

060417 704  0.2+  0.9-    060430 H45  0.1-  0.0     060509 704  0.1-  0.6-  

060417 704  0.2+  0.8-    060502 138  0.2-  0.0     060509 704  0.3+  1.2-  

060418 704  0.6+  0.2+    060502 138  0.1-  0.2+    060509 704  0.4+  0.6-  

060418 704  0.3+  0.1-    060502 138  0.0   0.1+    060509 704  1.2+  1.2-  

060418 704  0.4+  0.1+    060502 138  0.1-  0.0     060509 704  0.7+  0.0   

060418 704  0.2+  0.5+    060502 138  0.3-  0.2+    060510 J69  1.6+  0.3-  

060421 151  0.9-  0.2-    060502 127  0.0   0.2+    060510 J69  1.8+  0.5-  

060421 151  0.3-  0.0     060502 127  0.2+  0.1-    060510 J69  1.9+  0.4-  

060421 151  0.1+  0.0     060502 127  0.0   0.2+    060510 J69  1.8+  0.6-  

060421 151  0.2+  0.2+    060502 127  0.2+  0.1-    060510 J69 (2.1+  0.4-) 

060421 151  0.1+  0.3+    060502 127  0.2+  0.1+    060511 H45  0.3-  0.4+  

060421 151  0.1+  0.1+    060503 704  0.1+  0.3-    060511 H45  0.1-  0.3+  

060421 A17  0.4-  0.0     060503 704  0.2+  0.5-    060511 H45  0.2-  0.4+  

060421 A94  0.2-  0.1-    060503 704  1.1+  0.2-    060511 H45  0.1-  0.4+  

060421 A17  0.3-  0.1+    060503 704  0.3-  0.2+    060511 H45  0.3-  0.5+  

060421 A94  0.1-  0.1-    060503 704  1.4+  0.0     060511 H45  0.2-  0.4+  

060421 A17  0.5-  0.2+    060503 185  0.1+  0.1-    060511 H45  0.2-  0.4+  

060421 A94  0.2-  0.1+    060503 185  0.1-  0.2+    060511 644  0.4-  0.3+  

060421 A17  0.5-  0.2-    060503 185  0.1-  0.0     060511 644  0.4-  0.3+  

060422 H45  0.1-  0.1+    060503 185  0.1-  0.1+    060511 644  0.4-  0.3+  

060422 H45  0.3+  0.0     060503 113  0.1+  0.1-    060512 H36  0.0   0.0   

060422 H45  0.4+  0.0     060503 113  0.1+  0.2-    060512 H36  0.5-  0.2+  

060422 H45  0.0   0.1+    060503 113  0.0   0.0     060512 H36  0.5+  0.0   

060422 H45  0.1+  0.0     060504 H45  0.1+  0.2-    060512 H36  0.4-  0.2+  

060422 H45  0.2+  0.0     060504 H45  0.0   0.0     060512 G96  0.1-  0.3+  

060422 A94  0.0   0.3+    060504 H45  0.4+  0.2+    060512 G96  0.0   0.2+  

060422 A94  0.0   0.2-    060504 H45  0.2+  0.2-    060512 G96  0.3-  0.3+  

060422 A94  0.6-  0.5+    060504 H45  0.3+  0.2-    060512 G96  0.2-  0.3+  

060423 H45  0.2+  0.3+    060504 H45  0.2+  0.2-                            

060423 H45  0.1+  0.5+    060504 H45  0.2+  0.1-                            



日本スペースガード協会            (c) Copyright JSGA 2006           中野 主一

         **** Don't distribute anyone except personal use only ****

                (C) Copyright 2006 OAA/ComputingSection

write mail from CFAD0::NAKANO on 2006-05-18 04:25:05(JST).



戻ります。